[[{"header":{"parameterUnit":"m.s-1","parameterCategory":1,"la1":30.2991,"la2":30.254,"lo1":-89.0895,"lo2":-89.0444,"dy":0.0017,"dx":0.0017,"nx":28,"ny":28,"refTime":"2026-02-03T03:00:00:Z","depth":0,"parameterNumber":2,"parameterNumberName":"U-component_of_WINDS"},"data":[0,0,0,0,0,0,0,0,0,0,0,0,0,0,0,0,0,0,0,0,0,0,0,0,0,0,0,0,0,0,0,0,0,0,0,0,0,0,0,0,0,0,0,0,0,0,0,0,0,0,0,0,0,0,0,0,0,0,1.8736,1.8737,0,1.8826,1.8827,1.8828,1.8835,1.8835,1.8834,1.8833,1.8925,1.8928,1.8932,0,0,0,0,0,0,0,0,0,0,0,0,0,1.857,1.8573,1.8736,1.8737,1.8738,1.8826,1.8827,1.8828,1.8836,1.8834,1.8833,1.8832,1.8924,1.8928,1.8932,0,0,0,0,0,0,0,0,0,0,0,0,0,1.8649,1.8574,1.8736,1.8752,1.8755,1.8825,1.8827,1.8828,1.8836,1.8834,1.8833,1.8832,1.8923,1.8928,1.8933,1.8993,0,0,1.8948,1.895,0,0,0,0,0,0,0,0,1.8645,1.8655,1.8749,1.8751,1.8754,1.8818,1.8802,1.8883,1.8836,1.8805,1.8833,1.8831,1.8891,1.8898,1.8918,1.8997,1.9001,1.8948,1.8951,1.8954,1.8955,0,0,0,0,0,0,0,1.8639,1.8651,1.8771,1.875,1.8753,1.8755,1.8765,1.8818,1.8855,1.8808,1.8808,1.8819,1.8892,1.8913,1.892,1.9002,1.8948,1.8953,1.8956,1.8958,1.9133,1.9135,0,0,0,0,0,0,1.8631,1.8647,1.8769,1.8774,1.8695,1.8759,1.877,1.8799,1.8854,1.8861,1.882,1.8819,1.8905,1.8915,1.8924,1.8997,1.8954,1.8958,1.8961,1.9131,1.9133,1.9135,0,0,0,0,0,0,1.8627,1.8641,1.8765,1.8711,1.8727,1.8764,1.8796,1.8801,1.8823,1.8864,1.887,1.8835,1.8905,1.8917,1.8975,1.9,1.8961,1.8965,1.9129,1.9132,1.9134,1.9143,0,0,0,0,0,0,1.8622,1.864,1.8663,1.8711,1.8729,1.8815,1.8798,1.8804,1.8832,1.8831,1.888,1.8886,1.8904,1.8967,1.898,1.9006,1.8969,1.9127,1.9131,1.9133,1.9141,1.9146,1.915,0,0,0,0,0,1.8616,1.8663,1.8665,1.8679,1.8759,1.8816,1.8827,1.8846,1.8834,1.8857,1.8883,1.8885,1.8995,1.8973,1.8988,1.9016,1.9126,1.913,1.9133,1.9139,1.9145,1.915,0,0,0,0,0,0,1.8617,1.8669,1.8672,1.8735,1.8771,1.8817,1.8848,1.8852,1.8893,1.889,1.8913,1.8924,1.8981,1.9004,1.8979,1.9076,1.9059,1.9066,1.9059,1.9064,1.9069,1.9062,1.8973,0,0,0,0,0,1.8625,1.8667,1.871,1.8762,1.878,1.8811,1.8836,1.8848,1.8886,1.8902,1.8932,1.8969,1.9012,1.9039,1.9081,1.9144,1.9154,1.917,1.9175,1.9178,1.9184,1.9217,1.9225,1.9147,1.9147,1.9147,0,0,1.8641,1.8675,1.87,1.8763,1.8792,1.8834,1.8823,1.8869,1.8901,1.8909,1.8965,1.8989,1.9031,1.9092,1.912,1.9113,1.9207,1.9183,1.9185,1.9189,1.9222,1.9229,1.9235,1.915,1.9149,1.9149,0,0,1.8692,1.8722,1.8768,1.8797,1.8841,1.8862,1.8872,1.8918,1.8934,1.8991,1.8997,1.9035,1.9109,1.9138,1.9163,1.9224,1.9226,1.9237,1.926,1.9292,1.9298,1.9304,1.9325,1.9332,1.9242,1.9242,1.9242,0,1.8707,1.8771,1.8791,1.8836,1.8863,1.8872,1.8918,1.8946,1.9001,1.9019,1.901,1.9102,1.9132,1.9198,1.9213,1.9233,1.9246,1.9231,1.9296,1.9302,1.9307,1.9327,1.9335,1.9243,1.9243,1.9243,1.9243,0,1.8786,1.8831,1.8862,1.8915,1.8946,1.8991,1.9018,1.9046,1.9055,1.9076,1.9133,1.9169,1.9217,1.9234,1.9244,1.9302,1.9296,1.9291,1.9275,1.9315,1.9334,1.9342,1.9244,1.9244,1.9244,1.9243,0,0,1.8841,1.8903,1.8914,1.8938,1.8987,1.9022,1.9067,1.9114,1.9137,1.9175,1.9213,1.9275,1.927,1.9298,1.9311,1.934,1.9384,1.9332,1.9333,1.9339,1.9449,1.9452,1.946,1.9386,1.9388,1.9389,1.9445,0,1.8896,1.8977,1.8996,1.9066,1.9106,1.9115,1.9154,1.9188,1.9208,1.9245,1.9268,1.9311,1.9302,1.9319,1.9348,1.9373,1.9406,1.9369,1.9421,1.9423,1.941,1.947,1.9474,1.9525,1.9453,1.9454,1.9455,0,1.8972,1.9011,1.9084,1.9127,1.9145,1.918,1.9224,1.9259,1.9298,1.931,1.9341,1.9351,1.9397,1.9379,1.9443,1.9417,1.944,1.9455,1.9457,1.9462,1.9441,1.9476,1.9542,1.9549,1.9467,1.9466,1.9465,0,1.9003,1.9074,1.9127,1.9147,1.9198,1.9222,1.9244,1.9281,1.9308,1.9346,1.9364,1.9407,1.9431,1.9464,1.9484,1.9469,1.9547,1.953,1.9558,1.9557,1.9573,1.9572,1.9642,1.9589,1.9589,1.9589,1.9589,0,1.9063,1.9107,1.9141,1.9173,1.9223,1.9244,1.9292,1.9314,1.9347,1.9383,1.9393,1.9427,1.9453,1.949,1.9507,1.9556,1.9567,1.9578,1.9582,1.9577,1.9576,1.9592,1.9588,1.9591,1.959,1.959,1.959,0,1.9106,1.913,1.9188,1.9231,1.9243,1.9278,1.9315,1.9346,1.9366,1.9412,1.9424,1.9456,1.95,1.9524,1.958,1.9591,1.9646,1.9648,1.9633,1.9634,1.966,1.9657,1.9743,1.9755,1.9694,1.9695,1.9695,0,1.9142,1.9176,1.9223,1.9248,1.927,1.9311,1.9338,1.9359,1.9387,1.9432,1.9458,1.9502,1.9539,1.9609,1.9637,1.9679,1.9682,1.9709,1.9688,1.9682,1.9681,1.9678,1.9681,1.9713,1.9713,1.9714,1.9714,0,1.9203,1.9213,1.9252,1.9294,1.9326,1.9361,1.9395,1.9415,1.9442,1.9472,1.9517,1.9546,1.9602,1.9646,1.969,1.9712,1.9717,1.972,1.9729,1.9723,1.9713,1.9718,1.9642,1.9718,1.9718,1.9717,1.9717,1.9717,1.9243,1.9273,1.931,1.9352,1.938,1.9412,1.9443,1.9467,1.9505,1.9552,1.9563,1.961,1.9646,1.9706,1.9729,1.9766,1.9761,1.9773,1.9776,1.9779,1.9779,1.9707,1.9774,1.9774,1.9774,1.9774,1.9774,0,1.9303,1.9327,1.9366,1.9413,1.9446,1.9448,1.9486,1.9513,1.9555,1.9588,1.9624,1.9675,1.9717,1.9748,1.9791,1.9814,1.9817,1.9825,1.9823,1.9828,1.9782,1.977,1.9821,1.9821,1.9821,1.9821,1.9821,1.9821,1.9338,1.9389,1.9404,1.9468,1.9492,1.9538,1.9559,1.9588,1.9615,1.9671,1.9706,1.9726,1.9758,1.9803,1.9842,1.985,1.9864,1.9871,1.9879,1.9836,1.9831,1.9826,1.9815,1.9874,1.9874,1.9921,1.9922,1.9922]},{"header":{"parameterUnit":"m.s-1","parameterCategory":1,"la1":30.2991,"la2":30.254,"lo1":-89.0895,"lo2":-89.0444,"dy":0.0017,"dx":0.0017,"nx":28,"ny":28,"refTime":"2026-02-03T03:00:00:Z","depth":0,"parameterNumber":3,"parameterNumberName":"V-component_of_WINDS"},"data":[0,0,0,0,0,0,0,0,0,0,0,0,0,0,0,0,0,0,0,0,0,0,0,0,0,0,0,0,0,0,0,0,0,0,0,0,0,0,0,0,0,0,0,0,0,0,0,0,0,0,0,0,0,0,0,0,0,0,3.541,3.541,0,3.5361,3.536,3.536,3.5337,3.5337,3.5337,3.5337,3.528,3.5279,3.5277,0,0,0,0,0,0,0,0,0,0,0,0,0,3.5479,3.5478,3.541,3.541,3.5409,3.5361,3.536,3.536,3.5337,3.5337,3.5337,3.5337,3.5281,3.5279,3.5277,0,0,0,0,0,0,0,0,0,0,0,0,0,3.5441,3.5478,3.5411,3.5392,3.539,3.5361,3.536,3.536,3.5337,3.5337,3.5337,3.5337,3.5281,3.5279,3.5277,3.5261,0,0,3.527,3.5269,0,0,0,0,0,0,0,0,3.5444,3.5439,3.5396,3.5393,3.5391,3.5355,3.5364,3.5326,3.5337,3.5357,3.5337,3.5337,3.5305,3.5301,3.5291,3.5258,3.5255,3.5269,3.5268,3.5267,3.5266,0,0,0,0,0,0,0,3.5446,3.5441,3.5391,3.5395,3.5392,3.5385,3.5379,3.5357,3.5331,3.5355,3.5354,3.5348,3.5304,3.5293,3.5289,3.5255,3.5269,3.5267,3.5266,3.5265,3.5205,3.5205,0,0,0,0,0,0,3.5453,3.5443,3.5392,3.5389,3.5418,3.5383,3.5377,3.5367,3.5331,3.5326,3.5348,3.5347,3.5297,3.5292,3.5287,3.5266,3.5267,3.5265,3.5263,3.5205,3.5205,3.5204,0,0,0,0,0,0,3.5454,3.5448,3.5394,3.5416,3.5408,3.5382,3.537,3.5366,3.5355,3.5326,3.5321,3.5343,3.5297,3.5291,3.5268,3.5263,3.5264,3.5262,3.5205,3.5205,3.5205,3.5222,0,0,0,0,0,0,3.5456,3.5449,3.5444,3.5416,3.5407,3.5377,3.537,3.5365,3.5352,3.5351,3.5319,3.5314,3.5297,3.5271,3.5265,3.526,3.526,3.5205,3.5205,3.5205,3.5222,3.5223,3.5223,0,0,0,0,0,3.5459,3.545,3.5444,3.5438,3.5401,3.5377,3.5372,3.5354,3.5352,3.5346,3.5327,3.5315,3.5265,3.5269,3.5262,3.5256,3.5206,3.5205,3.5205,3.5222,3.5223,3.5223,0,0,0,0,0,0,3.5476,3.5446,3.5439,3.5421,3.5402,3.5374,3.5365,3.5355,3.5335,3.5334,3.5311,3.5304,3.5283,3.5267,3.5272,3.5238,3.5234,3.5232,3.5249,3.525,3.5251,3.5254,3.5258,0,0,0,0,0,3.5478,3.5463,3.5437,3.5423,3.5415,3.5392,3.5381,3.5369,3.5347,3.5338,3.5318,3.5296,3.5275,3.5261,3.524,3.522,3.5212,3.5212,3.5213,3.5213,3.5212,3.5199,3.5198,3.5203,3.5203,3.5203,0,0,3.5481,3.5463,3.5455,3.5426,3.541,3.5394,3.5385,3.5368,3.5355,3.5335,3.5313,3.5297,3.527,3.5248,3.5238,3.5235,3.5209,3.5213,3.5213,3.5211,3.5198,3.5198,3.5197,3.5203,3.5203,3.5203,0,0,3.5479,3.5464,3.5452,3.5436,3.5413,3.5398,3.5395,3.5367,3.5357,3.5334,3.5319,3.5302,3.5267,3.5249,3.5235,3.5226,3.5214,3.5219,3.5223,3.521,3.521,3.5209,3.5205,3.5204,3.5218,3.5218,3.5218,0,3.5486,3.5463,3.5446,3.543,3.5417,3.5401,3.5386,3.5371,3.5341,3.5332,3.533,3.5286,3.5266,3.524,3.5238,3.5227,3.5222,3.5223,3.5212,3.5211,3.521,3.5206,3.5205,3.5219,3.5219,3.5219,3.5219,0,3.5472,3.5455,3.5447,3.5422,3.5408,3.5393,3.5372,3.536,3.5348,3.5333,3.531,3.5286,3.5261,3.5253,3.5241,3.5224,3.5223,3.5217,3.5212,3.5211,3.5207,3.5205,3.522,3.522,3.522,3.5219,0,0,3.5479,3.5444,3.5441,3.5429,3.5402,3.5388,3.5372,3.5349,3.5338,3.5318,3.5303,3.5273,3.5267,3.5251,3.5237,3.5226,3.522,3.5221,3.522,3.5221,3.5199,3.5204,3.5203,3.5212,3.5212,3.5212,3.5201,0,3.5472,3.5445,3.5429,3.5407,3.5391,3.5375,3.536,3.5341,3.5326,3.5309,3.5291,3.5271,3.5264,3.5255,3.5243,3.5223,3.5215,3.5224,3.5196,3.5195,3.5203,3.5201,3.5206,3.5197,3.5199,3.5199,3.5199,0,3.5462,3.5444,3.5421,3.5396,3.5389,3.5376,3.5354,3.5338,3.5315,3.5305,3.5288,3.5274,3.5253,3.5251,3.5222,3.5228,3.5215,3.5204,3.5203,3.5199,3.5197,3.5196,3.5194,3.5193,3.5196,3.5196,3.5197,0,3.5469,3.5439,3.5422,3.5412,3.5382,3.5373,3.536,3.5338,3.5325,3.5304,3.5295,3.5271,3.5258,3.5239,3.5218,3.5218,3.5191,3.5187,3.518,3.5181,3.5175,3.5175,3.517,3.5167,3.5167,3.5168,3.5168,0,3.5464,3.545,3.5425,3.5414,3.5397,3.5378,3.5362,3.5347,3.5327,3.5312,3.5295,3.528,3.5254,3.5236,3.5219,3.5197,3.5191,3.5181,3.5176,3.5182,3.5183,3.5173,3.5173,3.5167,3.5167,3.5167,3.5167,0,3.5469,3.5451,3.5431,3.5405,3.5398,3.5387,3.5364,3.5352,3.5336,3.5316,3.531,3.5285,3.5262,3.524,3.5208,3.5197,3.5175,3.5169,3.5184,3.5181,3.5176,3.5177,3.5163,3.516,3.516,3.5161,3.5161,0,3.5467,3.5456,3.543,3.5419,3.5407,3.539,3.5377,3.5357,3.5344,3.5317,3.5308,3.5285,3.5265,3.5229,3.5206,3.5181,3.5175,3.5172,3.5171,3.5177,3.5174,3.5175,3.5173,3.5172,3.5172,3.5172,3.5172,0,3.5464,3.5456,3.544,3.542,3.5406,3.5388,3.537,3.5362,3.5338,3.5324,3.5302,3.5287,3.5256,3.5232,3.5205,3.5189,3.5176,3.5173,3.517,3.5176,3.5184,3.5179,3.5185,3.5173,3.5173,3.5173,3.5173,3.5173,3.5465,3.5455,3.5435,3.5417,3.5402,3.5385,3.5373,3.5356,3.5338,3.5313,3.5302,3.5279,3.5255,3.5218,3.5202,3.5182,3.5179,3.5175,3.5174,3.5173,3.5174,3.5188,3.5177,3.5177,3.5177,3.5177,3.5177,0,3.5462,3.5449,3.5432,3.5409,3.5394,3.5386,3.5365,3.5352,3.5334,3.5313,3.5295,3.5269,3.5245,3.5221,3.5196,3.5185,3.5178,3.5179,3.5179,3.5175,3.5179,3.5184,3.5185,3.5185,3.5185,3.5185,3.5185,3.5185,3.5458,3.5441,3.5431,3.5405,3.539,3.537,3.5359,3.5343,3.5327,3.5299,3.5281,3.5266,3.5244,3.5217,3.5195,3.5188,3.5179,3.5181,3.5172,3.5176,3.5175,3.5175,3.5179,3.5179,3.5179,3.5171,3.5171,3.5171]}]]